CZ-6A DEB

Satellite information

Favourite Embed

Satellite Type and Status

DEBRISIN ORBIT

Key statistics

Satellite CZ-6A DEB at a glance.

Uptime

395

Days in orbit

Revolutions

≈ 14.8

Per day

Orbit

LEO

Low Earth Orbit

Inclination

89.1

Latest

Satellite identification and parameters

Extended collection of information and parameters for CZ-6A DEB.

Object identification

Identified? True

Debris? True

Object name: CZ-6A DEB

International designator: 2024-140YT

Object number (NORAD): 61426

Object ID (CCSDS): 61426

Country: PEOPLES REPUBLIC OF CHINA (PRC)

Current information (Y/N): Y

RCS size: SMALL

Orbital parameters

Period: 97.615 minutes

Inclination: 89.1293 deg

SMA: 7022.691 km

Apoapsis: 746.347 km

Periapsis: 542.765 km

RAAN: 309.5661 deg

Eccentricy: 0.01449464

Argument of periapsis: 127.9174 deg

Mean anomaly: 233.5254 deg

Mean motion: 14.75188198 rev/day

Mean motion (dot): 0.00015265 rev/day2

B* drag term: 0.0018997675 1/REarth

Two-line elements (TLE)

Creation date: Sept. 4, 2025, 10:13 a.m.

Reference frame: TEME

Reference center: EARTH

Epoch: Sept. 4, 2025, 5:04 a.m. UTC

TLE line 0: 0 CZ-6A DEB

TLE line 1: 1 61426U 24140YT 25247.21172962 .00015265 00000-0 18998-2 0 9996

TLE line 2: 2 61426 89.1293 309.5661 0144946 127.9174 233.5254 14.75188198 55536

Live tracking on map

Real-time ground track for satellite CZ-6A DEB.

In-orbit conjunctions

A list of the most updated potential collisions computed for object CZ-6A DEB.

Target Orbit TCA Probability of collision Miss distance Type
COSMOS 2251 DEB LEO 2025-08-19 15:04:27 0.0007451406 86.0 (m) DEBRIS
DMSP 5D-2 F11 DEB SSO 2025-02-21 18:22:47 0.0001556671 973.0 (m) DEBRIS
FENGYUN 1C DEB SSO 2025-01-21 14:50:05 0.0001861375 628.0 (m) DEBRIS
CZ-6A DEB LEO 2024-12-23 09:07:55 0.0001193165 821.0 (m) DEBRIS
RADCAL LEO 2024-11-03 10:47:16 0.002365992 382.0 (m) PAYLOAD

Associated space launch

18 Low Earth Orbit communication satellites with Ku, Q and V band payloads for the G60 constellation operated by Shanghai Spacecom Satellite Technology (SSST) with funding backed by the Shanghai local government. Initial constellation will consist of 1296 satellites by 2027 with long term plans to expand it to 12000 satellites.

CZ-6A DEB was lifted into orbit during the mission ‘Long March 6A | G60 Polar Group 01’, on board a Long March 6A space rocket.

The launch took place on Aug. 6, 2024, 6:42 a.m. from Launch Complex 9A.

For more information about the launch, click the button.

Launch to space Long March 6A | G60 Polar Group 01
Long March 6A | G60 Polar Group 01

Agency: N/A

Status: Launch Successful

Launch date: Aug. 6, 2024, 6:42 a.m. UTC

Rocket: Long March 6A

Launch pad: Launch Complex 9A

Location: Taiyuan Satellite Launch Center, People's Republic of China

...

Latest news about this satellite

News about space launch
Brightness of first Chinese broadband constellation satellites alarms astronomers

The first satellites of a Chinese broadband constellation are significantly brighter than those of Western systems, posing a new challenge for astronomers.

News about space launch
Chinese rocket stage breaks up into cloud of more than 700 pieces of space debris

HELSINKI — A Chinese Long March 6A rocket’s upper stage has fragmented into a cloud of over 700 pieces of space debris, adding to concerns about long-term orbital safety. China […]

News about space launch
China's Thousand Sails Megaconstellation Kicks Off with Dangerous Debris Field

China's Thousand Sails Megaconstellation Kicks Off with Dangerous Debris Field


Newsletter sign-up

Weekly statistics, charts and insights to help you stay on top of the space industry.